Regional Weather Roundup
Issued by NWS

Home | Current Version | Previous Version | Graphics & Text | Print | Product List | Glossary On
Versions: 1 2 3 4 5 6 7 8 9 10 11 12 13 14 15 16 17 18 19 20 21 22 23 24 25 26 27 28 29 30 31 32 33 34 35 36 37 38 39 40 41 42 43 44 45 46 47 48 49 50
000
ASUS43 KLSX 020107
RWRMO

WEATHER SUMMARY FOR MISSOURI
NATIONAL WEATHER SERVICE SPRINGFIELD MO
800 PM CDT WED JUL 01 2015

NOTE: "FAIR" INDICATES FEW OR NO CLOUDS BELOW 12,000 FEET WITH NO
       SIGNIFICANT WEATHER AND/OR OBSTRUCTIONS TO VISIBILITY.
       CURRENT SKY AND/OR WEATHER CONDITIONS ARE NOT AVAILABLE FOR
       CHILLICOTHE AND FARMINGTON.

MOZ001>031-035>038-043-044-053-054-020200-
...NORTHERN AND WESTERN MISSOURI...

CITY           SKY/WX    TMP DP  RH WIND       PRES   REMARKS
KANSAS CTY INT PTCLDY    82  75  79 NE13      29.80F
KANSAS C DTWN  PTCLDY    80  75  84 E7        29.78R
ST JOSEPH      PTCLDY    82  73  74 E7        29.80F
CHILLICOTHE      N/A     79  72  79 NE9       29.84S
KIRKSVILLE     CLOUDY    74  68  81 NE12      29.88F

$$
MOZ066>068-077>081-088>096-101>105-020200-
...SOUTHWEST MISSOURI...

CITY           SKY/WX    TMP DP  RH WIND       PRES   REMARKS
SPRINGFIELD    PTCLDY    82  74  76 S10       29.85R
JOPLIN         MOCLDY    83  73  72 S12       29.82S

$$
MOZ032>034-039>042-045>050-055>058-069>072-020200-
...CENTRAL MISSOURI...

CITY           SKY/WX    TMP DP  RH WIND       PRES   REMARKS
COLUMBIA       MOCLDY    76  71  85 SE14      29.79F THUNDER
JEFFERSON CITY CLOUDY    79  72  79 E8        29.80F
ROLLA          MOCLDY    77  73  87 SE6       29.84F
SEDALIA        PTCLDY    78  74  87 E6        29.80F
WHITEMAN AFB   TSTM      79  75  86 SE6       29.75F
WARRENSBURG    MOCLDY    77  73  88 CALM      29.79R
OSAGE BEACH    PTCLDY    79  72  78 S7        29.82F

$$
MOZ051-052-059>065-020200-
...EAST CENTRAL MISSOURI...

CITY           SKY/WX    TMP DP  RH WIND       PRES   REMARKS
ST LOUIS INTL  TSTM      72  66  83 S9        29.89S
SPIRIT OF STL  CLOUDY    77  72  84 NE8       29.85S
ST CHARLES     CLOUDY    74  69  85 S12G21    29.85S THUNDER

$$
MOZ072>076-082>087-097>100-106>115-020200-
...SOUTH CENTRAL AND SOUTHEAST MISSOURI...

CITY           SKY/WX    TMP DP  RH WIND       PRES   REMARKS
CAPE GIRARDEAU PTCLDY    76  71  85 S3        29.90R
FARMINGTON     MOCLDY    77  72  83 S6        29.93F
WEST PLAINS    PTCLDY    78  73  84 S5        29.90F

$$


USA.gov is the U.S. government's official web portal to all federal, state and local government web resources and services.